Cairo, Egypt

7:13 PM EET on September 21, 2017 (GMT +0200)
Cairo International Airport

Weather History for HECA - December, 2012

Change the Weather History Date:

Thursday, December 27, 2012

  Actual Average Record
Temperature  
Mean Temperature 60 °F -  
Max Temperature 68 °F 64 °F 78 °F (2010)
Min Temperature 52 °F 48 °F 44 °F (2005)
Degree Days  
Heating Degree Days 5    
Growing Degree Days 10 (Base 50)    
Moisture  
Dew Point 49 °F    
Average Humidity 69    
Maximum Humidity 88    
Minimum Humidity 44    
Precipitation  
Precipitation 0.00 in 0.01 in - ()
Sea Level Pressure  
Sea Level Pressure 30.20 in    
Wind  
Wind Speed 4 mph ()    
Max Wind Speed 10 mph    
Max Gust Speed -    
Visibility 3.5 miles    
Events      
Averages and records for this station are not official NWS values.
T = Trace of Precipitation, MM = Missing Value Source: Averaged Metar Reports

Daily Weather History Graph

Daily Weather History Graph

Search for Another Location

Airport or City:

Trip Planner

Search our weather history database for the weather conditions in past years. The results will help you decide how hot, cold, wet, or windy it might be!

Date:

Astronomy

Dec. 27, 2012 Rise Set
Actual Time 6:49 AM EET 5:02 PM EET
Civil Twilight 6:22 AM EET 5:28 PM EET
Nautical Twilight 5:52 AM EET 5:58 PM EET
Astronomical Twilight 5:23 AM EET 6:27 PM EET
Moon 4:26 PM EET (12/27) 5:46 AM EET (12/27)
Length of Visible Light 11h 05m
Length of Day
10h 13m
Waxing Gibbous, 99% of the Moon is Illuminated
Dec 27
Waxing Gibbous
Dec 28
Full
Jan 5
Last Quarter
Jan 11
New
Jan 19
First Quarter

Hourly Weather History & Observations

Time (EET) Temp. Dew Point Humidity Pressure Visibility Wind Dir Wind Speed Gust Speed Precip Events Conditions
12:00 AM 57.2 °F 50.0 °F 77% 30.24 in 3.7 mi ENE 3.5 mph - N/A   Unknown
12:30 AM 55.4 °F 50.0 °F 82% 30.24 in 3.7 mi East 4.6 mph - N/A   Unknown
1:00 AM 55.4 °F 48.2 °F 77% 30.24 in 3.7 mi ENE 4.6 mph - N/A   Unknown
1:30 AM 57.2 °F 50.0 °F 77% 30.24 in 3.7 mi East 3.5 mph - N/A   Unknown
2:00 AM 55 °F 49 °F 74% 30.27 in 4 mi East 2.3 mph - -   Mist
2:00 AM 55.4 °F 48.2 °F 77% 30.24 in 3.7 mi East 2.3 mph - N/A   Unknown
2:30 AM 55.4 °F 50.0 °F 82% 30.24 in 3.7 mi East 2.3 mph - N/A   Unknown
3:00 AM 55.4 °F 50.0 °F 82% 30.24 in 3.7 mi East 4.6 mph - N/A   Unknown
3:30 AM 55.4 °F 50.0 °F 82% 30.24 in 3.7 mi East 3.5 mph - N/A   Unknown
4:00 AM 55.4 °F 48.2 °F 77% 30.24 in 3.7 mi ENE 2.3 mph - N/A   Unknown
4:30 AM 55.4 °F 48.2 °F 77% 30.24 in 3.7 mi East 3.5 mph - N/A   Unknown
5:00 AM 53.6 °F 48.2 °F 82% 30.21 in 3.7 mi East 4.6 mph - N/A   Unknown
5:30 AM 51.8 °F 46.4 °F 82% 30.24 in 3.7 mi East 4.6 mph - N/A   Unknown
6:00 AM 51.8 °F 46.4 °F 82% 30.21 in 3.7 mi East 5.8 mph - N/A   Unknown
6:30 AM 53.6 °F 48.2 °F 82% 30.24 in 2.5 mi ENE 3.5 mph - N/A   Mist
7:00 AM 53.6 °F 50.0 °F 88% 30.24 in 2.5 mi East 4.6 mph - N/A   Mist
7:30 AM 55.4 °F 50.0 °F 82% 30.24 in 2.5 mi East 3.5 mph - N/A   Mist
8:00 AM 56 °F 51 °F 77% 30.26 in 2 mi East 3.5 mph - -   Mist
8:00 AM 55.4 °F 50.0 °F 82% 30.24 in 2.5 mi East 3.5 mph - N/A   Mist
8:30 AM 59.0 °F 51.8 °F 77% 30.24 in 1.9 mi East 3.5 mph - N/A   Mist
9:00 AM 59.0 °F 51.8 °F 77% 30.24 in 1.9 mi ENE 3.5 mph - N/A   Mist
9:30 AM 60.8 °F 51.8 °F 72% 30.24 in 3.7 mi NNE 3.5 mph - N/A   Unknown
10:00 AM 60.8 °F 50.0 °F 68% 30.24 in 3.7 mi NNE 5.8 mph - N/A   Unknown
10:30 AM 60.8 °F 50.0 °F 68% 30.24 in 3.7 mi NNE 5.8 mph - N/A   Unknown
11:00 AM 62.6 °F 53.6 °F 72% 30.21 in 3.7 mi North 4.6 mph - N/A   Unknown
11:30 AM 62.6 °F 53.6 °F 72% 30.21 in 3.7 mi North 4.6 mph - N/A   Unknown
12:00 PM 64.4 °F 48.2 °F 56% 30.21 in 3.7 mi NNE 4.6 mph - N/A   Unknown
12:30 PM 66.2 °F 48.2 °F 52% 30.18 in 3.7 mi North 8.1 mph - N/A   Unknown
1:00 PM 66.2 °F 48.2 °F 52% 30.18 in 3.7 mi NNE 6.9 mph - N/A   Unknown
1:30 PM 66.2 °F 46.4 °F 49% 30.18 in 3.7 mi North 8.1 mph - N/A   Unknown
2:00 PM 68 °F 51 °F 44% 30.16 in 4 mi NE 8.1 mph - -   Haze
2:00 PM 68.0 °F 51.8 °F 56% 30.15 in 3.7 mi NE 8.1 mph - N/A   Unknown
2:30 PM 66.2 °F 46.4 °F 49% 30.15 in 3.7 mi North 3.5 mph - N/A   Unknown
3:00 PM 66.2 °F 48.2 °F 52% 30.15 in - NNE 5.8 mph - N/A   Clear
3:30 PM 66.2 °F 48.2 °F 52% 30.15 in - North 8.1 mph - N/A   Clear
4:00 PM 66.2 °F 48.2 °F 52% 30.15 in - North 8.1 mph - N/A   Clear
4:30 PM 66.2 °F 46.4 °F 49% 30.15 in - North 10.4 mph - N/A   Clear
5:00 PM 64.4 °F 48.2 °F 56% 30.15 in - North 9.2 mph - N/A   Clear
5:30 PM 64.4 °F 48.2 °F 56% 30.15 in - North 9.2 mph - N/A   Clear
6:00 PM 64.4 °F 48.2 °F 56% 30.15 in - North 8.1 mph - N/A   Clear
6:30 PM 64.4 °F 48.2 °F 56% 30.15 in - North 8.1 mph - N/A   Clear
7:00 PM 60.8 °F 48.2 °F 63% 30.18 in - North 6.9 mph - N/A   Clear
7:30 PM 60.8 °F 48.2 °F 63% 30.18 in - North 6.9 mph - N/A   Clear
8:00 PM 60 °F 49 °F 56% 30.19 in 6 mi NNE 6.9 mph - -  
8:00 PM 60.8 °F 48.2 °F 63% 30.18 in - NNE 6.9 mph - N/A   Clear
8:30 PM 59.0 °F 48.2 °F 67% 30.18 in - NNE 6.9 mph - N/A   Clear
9:00 PM 57.2 °F 48.2 °F 72% 30.18 in - ENE 6.9 mph - N/A   Clear
9:30 PM 57.2 °F 48.2 °F 72% 30.18 in - ENE 6.9 mph - N/A   Clear
10:00 PM 57.2 °F 50.0 °F 77% 30.18 in - East 6.9 mph - N/A   Clear
10:30 PM 57.2 °F 50.0 °F 77% 30.18 in - East 6.9 mph - N/A   Clear
11:00 PM 57.2 °F 50.0 °F 77% 30.18 in - NNE 3.5 mph - N/A   Clear
11:30 PM 57.2 °F 50.0 °F 77% 30.18 in - NNE 3.5 mph - N/A   Clear